Weather History for Whiteman AFB, MO

Change the Weather History Date:

Tuesday, October 5, 2010

  Actual Average Record
Temperature  
Mean Temperature 56 °F -  
Max Temperature 70 °F 70 °F 88 °F (2007)
Min Temperature 41 °F 48 °F 36 °F (2012)
Degree Days  
Heating Degree Days 10    
Growing Degree Days 6 (Base 50)    
Moisture  
Dew Point 42 °F    
Average Humidity 65    
Maximum Humidity 89    
Minimum Humidity 36    
Precipitation  
Precipitation 0.00 in - - ()
Sea Level Pressure  
Sea Level Pressure 30.36 in    
Wind  
Wind Speed 5 mph (SSE)    
Max Wind Speed 9 mph    
Max Gust Speed -    
Visibility 10 miles    
Events      
Averages and records for this station are not official NWS values.
T = Trace of Precipitation, MM = Missing Value Source: NWS Daily Summary

Daily Weather History Graph

Daily Weather History Graph

Search for Another Location

Airport:

Trip Planner

Search our weather history database for the weather conditions in past years. The results will help you decide how hot, cold, wet, or windy it might be!

Date:

Astronomy

Oct. 05, 2010 Rise Set
Actual Time 7:13 AM CDT 6:50 PM CDT
Civil Twilight 6:47 AM CDT 7:17 PM CDT
Nautical Twilight 6:16 AM CDT 7:47 PM CDT
Astronomical Twilight 5:45 AM CDT 8:18 PM CDT
Moon 4:38 AM CDT (10/5) 5:21 PM CDT (10/5)
Length of Visible Light 12h 30m
Length of Day
11h 36m
Waning Crescent, 6% of the Moon is Illuminated
Oct 5
Waning Crescent
Oct 7
New
Oct 14
First Quarter
Oct 22
Full
Oct 30
Last Quarter

Hourly Weather History & Observations

Time (CDT) Temp. Windchill Dew Point Humidity Pressure Visibility Wind Dir Wind Speed Gust Speed Precip Events Conditions
12:55 AM 44.8 °F 43.3 °F 38.3 °F 78% 30.35 in 10.0 mi SSE 3.5 mph - N/A   Clear
1:55 AM 44.4 °F 42.0 °F 37.9 °F 78% 30.35 in 10.0 mi SSE 4.6 mph - N/A   Clear
2:55 AM 44.8 °F 41.6 °F 37.9 °F 77% 30.35 in 10.0 mi South 5.8 mph - N/A   Clear
3:55 AM 43.5 °F 40.1 °F 38.3 °F 82% 30.36 in 10.0 mi SSE 5.8 mph - N/A   Clear
4:55 AM 43.0 °F 39.5 °F 38.3 °F 84% 30.36 in 10.0 mi SSE 5.8 mph - N/A   Clear
5:55 AM 41.7 °F 38.8 °F 38.3 °F 88% 30.37 in 10.0 mi SSE 4.6 mph - N/A   Clear
6:55 AM 41.2 °F 38.2 °F 37.6 °F 87% 30.38 in 10.0 mi South 4.6 mph - N/A   Clear
7:55 AM 41.7 °F 38.8 °F 38.8 °F 89% 30.40 in 10.0 mi SSE 4.6 mph - N/A   Clear
8:55 AM 48.9 °F - 43.0 °F 80% 30.42 in 10.0 mi South 5.8 mph - N/A   Clear
9:55 AM 56.7 °F - 45.0 °F 65% 30.43 in 10.0 mi South 6.9 mph - N/A   Clear
10:55 AM 62.4 °F - 41.7 °F 47% 30.42 in 10.0 mi SSW 9.2 mph - N/A   Clear
11:55 AM 64.9 °F - 42.6 °F 44% 30.41 in 10.0 mi South 8.1 mph - N/A   Clear
12:55 PM 66.9 °F - 42.1 °F 40% 30.40 in 10.0 mi South 8.1 mph - N/A   Clear
1:55 PM 68.9 °F - 43.7 °F 40% 30.38 in 10.0 mi SSE 8.1 mph - N/A   Clear
2:55 PM 69.8 °F - 42.8 °F 38% 30.34 in 10.0 mi Variable 6.9 mph - N/A   Clear
3:55 PM 70.5 °F - 42.3 °F 36% 30.33 in 10.0 mi Variable 3.5 mph - N/A   Clear
4:55 PM 70.5 °F - 42.4 °F 36% 30.32 in 10.0 mi South 3.5 mph - N/A   Clear
5:55 PM 68.4 °F - 45.7 °F 44% 30.30 in 10.0 mi South 5.8 mph - N/A   Clear
6:55 PM 63.7 °F - 43.7 °F 48% 30.30 in 10.0 mi SSE 4.6 mph - N/A   Clear
7:55 PM 57.2 °F - 44.1 °F 62% 30.32 in 10.0 mi SSE 3.5 mph - N/A   Clear
8:55 PM 54.3 °F - 43.7 °F 67% 30.32 in 10.0 mi SSE 3.5 mph - N/A   Clear
9:55 PM 50.9 °F - 44.2 °F 78% 30.32 in 10.0 mi South 4.6 mph - N/A   Clear
10:55 PM 50.4 °F - 43.7 °F 78% 30.32 in 10.0 mi South 5.8 mph - N/A   Clear
11:55 PM 47.8 °F - 43.3 °F 84% 30.31 in 10.0 mi South 5.8 mph - N/A   Clear